Lapse_Rate
6.7 6.4 6.3 6.3 6.2 6.3 6.3 6.4 6.4 6.3 6.2 6.0 5.9 5.9 5.8 5.7 5.7 5.8 6.0 6.1 6.3 6.3 6.4 6.4 6.5 6.4 6.3 6.2 6.1 6.1 6.1 6.1 6.0 5.7 5.5 5.4 5.3 5.2 5.1 5.1 5.2 5.2 5.2
6.5 6.3 6.3 6.2 6.2 6.2 6.3 6.3 6.2 6.1 6.0 5.9 5.7 5.7 5.8 5.9 6.0 6.1 6.2 6.4 6.5 6.5 6.5 6.4 6.4 6.3 6.2 6.1 6.2 6.2 6.2 6.1 6.1 6.2 6.1 5.9 5.7 5.5 5.4 5.2 5.1 5.1 5.1
6.6 6.3 6.2 6.0 6.1 6.1 6.1 6.1 5.9 5.9 5.8 5.7 5.7 5.8 5.9 6.0 6.1 6.2 6.4 6.4 6.4 6.3 6.3 6.3 6.3 6.3 6.2 6.1 6.1 6.0 6.0 6.0 6.1 6.1 6.1 6.1 6.0 5.9 5.8 5.6 5.4 5.3 5.2
6.5 6.3 6.0 5.9 5.9 5.9 5.9 5.7 5.6 5.6 5.7 5.8 5.7 5.7 6.0 6.1 6.2 6.5 6.6 6.6 6.4 6.3 6.2 6.2 6.1 6.0 6.0 6.0 6.0 5.9 5.9 5.9 6.0 6.0 6.0 6.0 6.0 5.9 5.9 5.9 5.7 5.6 5.4
6.2 6.0 5.8 5.7 5.7 5.7 5.6 5.5 5.5 5.6 5.8 5.8 5.9 5.9 6.1 6.2 6.4 6.6 6.6 6.5 6.3 6.2 6.1 6.0 5.9 5.9 5.9 5.9 5.8 5.8 5.7 5.7 5.7 5.7 5.7 5.7 5.8 5.9 5.9 5.9 5.9 5.8 5.8
5.6 5.7 5.7 5.7 5.5 5.3 5.2 5.3 5.4 5.7 6.0 6.0 6.1 6.2 6.3 6.4 6.4 6.5 6.3 6.1 5.9 5.8 5.7 5.6 5.6 5.7 5.6 5.6 5.5 5.5 5.5 5.6 5.6 5.6 5.6 5.7 5.8 5.9 5.9 5.9 5.9 5.9 5.9
5.4 5.6 5.6 5.5 5.2 5.1 5.1 5.2 5.4 5.5 5.7 5.9 6.2 6.2 6.3 6.2 6.2 6.2 6.1 5.9 5.7 5.7 5.7 5.6 5.6 5.6 5.6 5.5 5.5 5.6 5.6 5.6 5.6 5.6 5.8 5.8 5.9 5.8 5.8 5.6 5.7 5.8 5.8
5.6 5.6 5.5 5.3 5.1 5.1 5.2 5.3 5.3 5.5 5.7 6.1 6.4 6.7 6.8 6.6 6.6 6.5 6.4 6.3 6.0 6.0 5.9 5.8 5.8 5.8 5.7 5.6 5.6 5.8 5.9 5.9 6.0 6.0 6.0 6.0 6.0 6.0 5.8 5.9 5.7 5.6 5.5
5.6 5.5 5.4 5.2 5.2 5.2 5.1 5.2 5.3 5.5 5.7 6.1 6.4 6.4 6.5 6.8 7.0 7.1 6.8 6.6 6.5 6.4 6.4 6.1 6.0 5.8 5.8 5.9 6.1 6.2 6.2 6.2 6.0 5.9 5.8 5.6 5.4 5.3 5.2 5.1 5.1 5.0 4.8
5.6 5.5 5.3 5.2 5.1 5.1 5.3 5.4 5.5 5.8 6.1 6.1 6.1 6.2 6.3 6.3 6.5 6.9 7.1 6.8 6.6 6.5 6.4 6.2 6.2 6.2 6.3 6.3 6.3 6.3 6.2 6.0 5.8 5.5 5.3 5.0 4.8 4.7 4.5 4.4 4.3 4.2 4.1
5.5 5.4 5.2 5.1 5.2 5.2 5.3 5.4 5.6 5.9 6.0 6.1 6.2 6.3 6.2 6.2 6.0 5.9 6.3 6.4 6.5 6.4 6.4 6.5 6.7 6.6 6.5 6.3 6.2 5.9 5.7 5.5 5.1 4.8 4.5 4.3 4.2 4.1 3.9 3.8 3.7 3.6 3.3
5.4 5.2 5.2 5.2 5.3 5.3 5.3 5.5 5.8 5.9 5.9 6.0 6.1 6.1 6.1 6.1 5.9 5.8 6.0 6.0 6.0 6.2 6.4 6.5 6.4 6.3 5.9 5.7 5.3 5.0 4.8 4.5 4.3 4.1 3.9 3.7 3.6 3.6 3.5 3.5 3.4 3.3 3.0
5.2 5.2 5.1 5.3 5.4 5.4 5.5 5.6 5.8 5.9 5.9 5.9 6.0 5.8 5.6 5.5 5.4 5.3 5.3 5.6 5.9 6.2 6.2 6.2 5.9 5.4 5.1 4.8 4.5 4.3 4.1 3.8 3.6 3.4 3.3 3.2 3.1 3.1 3.1 3.0 3.1 3.1 2.9
5.2 5.2 5.3 5.4 5.4 5.4 5.6 5.7 5.7 5.7 5.8 5.8 5.6 5.6 5.4 5.3 5.0 4.9 4.8 5.0 5.8 6.0 6.0 5.7 5.3 4.9 4.5 4.1 3.7 3.5 3.1 2.9 2.9 2.8 2.6 2.5 2.6 2.9 3.0 3.2 3.4 3.4 3.9
5.3 5.3 5.4 5.5 5.6 5.6 5.6 5.6 5.7 5.8 5.6 5.6 5.5 5.3 5.2 5.0 4.8 4.6 4.7 4.6 4.5 5.3 6.1 5.6 4.9 4.2 3.9 3.7 3.3 2.7 2.2 2.0 2.0 2.1 2.4 3.3 4.0 4.2 4.2 4.2 4.3 4.8 4.9
5.4 5.5 5.6 5.8 5.6 5.5 5.5 5.6 5.7 5.7 5.6 5.3 5.2 5.1 4.9 4.7 4.7 4.6 4.6 4.4 4.2 4.1 4.7 4.6 4.2 3.7 3.5 3.1 2.7 2.6 2.5 2.8 3.3 3.6 3.9 3.9 3.5 3.0 3.5 3.5 3.7 3.9 3.9
5.6 5.8 5.8 5.6 5.4 5.4 5.6 5.7 5.7 5.5 5.2 5.1 4.9 4.9 4.8 4.7 4.7 4.5 4.3 4.1 3.9 3.7 3.7 4.2 3.6 3.5 3.2 3.2 3.4 3.4 3.3 3.5 4.1 4.7 4.9 4.1 4.4 4.3 4.2 4.2 3.8 3.7 3.6
5.8 5.7 5.6 5.5 5.5 5.6 5.7 5.6 5.4 5.1 4.9 4.9 4.8 4.8 4.8 4.7 4.5 4.3 4.0 3.9 3.7 3.5 3.1 3.2 3.5 3.4 3.3 3.8 4.0 4.3 4.6 4.3 4.5 4.8 4.4 4.6 4.7 4.6 4.8 4.6 4.3 4.3 4.3
5.7 5.7 5.6 5.6 5.7 5.6 5.5 5.3 5.0 4.9 4.8 4.7 4.7 4.7 4.7 4.4 4.2 4.1 3.9 3.6 3.3 3.3 3.1 2.6 2.7 3.4 3.9 4.3 4.5 4.3 4.3 4.7 4.8 4.6 4.6 4.6 4.4 4.4 4.4 4.6 4.7 4.7 4.7
5.7 5.7 5.7 5.7 5.6 5.4 5.2 5.0 4.9 4.7 4.7 4.7 4.7 4.5 4.3 4.1 4.0 3.8 3.6 3.2 2.8 2.7 2.7 2.9 3.6 3.8 3.9 4.2 4.0 4.1 4.5 4.7 4.7 4.3 4.2 4.4 3.8 3.8 4.0 3.9 4.2 4.5 4.6
5.8 5.8 5.8 5.6 5.3 5.1 4.9 4.9 4.8 4.7 4.7 4.7 4.4 4.3 4.1 3.9 3.8 3.5 3.0 2.8 2.9 3.0 3.4 3.5 3.4 3.8 4.0 4.0 4.2 4.3 4.2 4.6 5.3 3.7 3.9 4.7 3.5 4.2 4.0 3.7 3.7 3.9 4.1
5.9 5.9 5.6 5.3 5.0 4.9 4.8 4.6 4.6 4.7 4.6 4.4 4.3 4.1 3.9 3.7 3.5 3.1 2.9 2.9 3.1 3.8 3.7 3.8 4.1 4.0 3.7 3.8 4.0 4.3 4.4 4.4 4.9 4.5 3.9 5.3 3.9 4.5 3.9 3.9 3.9 3.8 4.0
5.8 5.6 5.2 5.0 5.0 4.7 4.6 4.6 4.6 4.5 4.4 4.2 3.9 3.8 3.5 3.1 3.0 3.0 3.2 3.7 4.3 4.1 3.8 3.8 3.7 3.8 3.8 3.9 4.0 4.3 4.5 4.5 4.8 4.2 3.3 5.0 4.3 5.0 4.4 4.6 4.1 3.8 4.2
5.4 5.1 5.0 4.9 4.7 4.6 4.7 4.6 4.5 4.4 4.1 3.9 3.7 3.5 3.2 3.1 3.3 3.2 3.5 4.2 4.4 4.6 4.3 4.2 4.0 3.9 3.7 3.6 3.5 3.6 3.9 4.3 4.9 4.6 3.3 4.7 4.5 4.8 4.7 4.6 4.2 4.3 4.6
5.2 5.1 4.8 4.6 4.7 4.6 4.6 4.5 4.3 4.1 3.9 3.7 3.5 3.3 3.1 3.1 3.1 3.4 4.0 4.5 4.9 4.7 4.6 4.3 4.1 4.0 4.1 4.0 3.6 3.5 3.8 4.0 4.7 5.2 4.0 4.9 5.0 4.9 5.1 4.9 5.0 5.2 5.7
5.0 4.7 4.5 4.6 4.6 4.7 4.4 4.1 3.9 3.8 3.7 3.5 3.3 3.2 3.1 3.3 4.1 4.2 4.3 4.7 4.7 4.6 4.7 5.0 4.8 4.7 4.4 4.1 3.9 3.7 3.6 3.9 4.1 4.9 4.4 4.8 5.1 4.6 6.1 5.7 5.6 6.3 6.3
Wind_Speed
3 3 4 7 8 8 8 6 7 6 7 8 9 8 8 8 8 11 11 14 15 14 13 13 13 14 15 14 13 13 14 14 14 14 13 13 14 15 16 15 15 16 16
6 5 4 5 6 8 9 8 5 4 4 5 5 6 7 6 8 9 9 12 13 14 13 14 14 15 16 15 14 15 15 14 14 14 15 15 15 16 16 17 16 17 18
9 7 4 4 5 8 10 8 6 7 4 4 5 3 5 3 6 9 9 10 11 14 13 14 15 17 18 17 16 18 15 15 14 16 17 17 17 17 16 17 19 21 21
10 9 6 4 7 10 7 4 4 4 4 5 4 4 3 2 3 7 7 9 10 12 11 13 17 18 18 17 18 17 16 16 16 18 19 18 18 19 20 20 20 21 20
11 11 6 6 10 7 5 3 4 4 4 5 5 4 3 1 2 4 4 8 8 12 9 10 15 16 18 17 18 16 17 19 19 19 20 20 19 19 21 20 20 21 22
13 13 9 7 9 4 4 4 5 4 3 4 4 5 4 0 1 3 2 6 5 9 8 9 12 13 19 19 19 17 21 21 19 21 21 20 20 23 23 23 23 23 24
14 13 6 6 6 5 5 4 2 5 5 5 3 4 3 2 2 2 1 1 1 5 8 9 15 15 16 18 17 19 24 22 22 22 21 22 25 27 26 25 25 25 25
15 11 7 5 5 5 5 5 6 2 3 5 3 1 4 4 4 7 4 3 4 7 7 15 16 16 16 16 14 24 24 22 23 23 24 27 27 27 25 26 27 28 29
14 13 10 6 5 4 4 5 4 5 3 3 5 3 3 2 4 3 3 3 5 5 5 10 13 14 16 16 16 19 20 23 24 26 27 29 28 27 29 31 32 32 32
11 12 11 9 6 4 5 4 3 3 2 3 2 3 0 2 3 5 2 5 3 8 6 5 9 13 15 14 17 20 22 26 27 28 31 29 30 31 32 32 33 33 32
10 10 10 8 6 3 5 5 4 4 2 2 1 2 1 2 2 3 8 5 9 7 7 5 5 11 13 14 14 15 23 27 28 30 31 31 32 33 33 34 34 31 34
4 7 9 8 7 5 4 3 3 4 2 1 0 1 2 1 3 2 4 10 12 7 9 9 6 4 10 12 15 25 27 29 31 31 32 34 34 34 35 35 35 35 34
3 5 4 5 4 5 5 4 3 3 1 1 2 2 1 2 2 2 3 9 9 9 4 3 5 6 12 14 16 28 29 32 34 34 35 35 35 36 36 36 36 36 35
4 4 5 6 6 6 4 4 2 2 1 2 4 3 3 3 2 2 2 7 12 5 10 5 5 4 7 12 19 28 23 30 33 35 36 37 37 38 36 37 36 37 38
5 6 6 6 5 4 4 3 2 3 3 3 4 4 3 3 3 4 3 3 5 9 14 5 3 8 10 14 18 22 21 27 32 35 38 36 35 35 37 39 41 42 41
5 6 6 5 4 3 3 3 3 3 3 3 3 4 4 3 4 4 4 4 5 8 11 11 11 12 10 12 22 24 21 30 31 34 32 33 37 40 42 42 42 40 38
6 6 5 4 3 3 3 3 3 4 5 5 5 5 6 6 4 4 4 5 7 7 12 16 12 13 14 14 14 17 18 17 17 24 35 38 40 39 38 38 37 36 35
5 5 5 4 3 3 3 3 4 5 5 6 6 6 7 6 6 5 6 8 9 10 10 17 16 14 15 16 15 13 10 13 15 25 34 36 36 36 36 34 32 32 34
5 5 5 4 3 3 5 4 4 6 6 6 6 6 6 6 7 6 8 8 8 8 8 11 15 13 13 11 10 12 12 12 12 26 30 32 33 34 34 32 36 35 35
6 5 4 3 3 4 4 5 5 5 5 5 5 6 6 7 8 10 8 8 9 10 12 11 13 12 8 12 10 13 12 11 12 11 18 27 30 31 32 33 34 34 34
5 4 3 3 4 4 4 6 5 5 4 5 6 6 7 11 19 16 10 11 13 12 11 10 9 12 12 12 14 12 13 13 11 11 12 12 10 11 14 25 28 32 31
4 3 4 4 5 4 11 13 11 4 4 6 7 8 7 14 12 21 23 26 22 15 11 11 12 14 15 13 13 12 11 15 15 8 9 14 11 13 12 12 27 31 32
3 3 4 4 5 5 12 15 16 4 5 6 8 8 8 8 15 11 19 25 22 22 20 16 15 14 16 15 13 15 16 13 15 13 12 15 11 14 12 13 29 32 33
3 3 3 4 5 5 13 15 16 5 5 7 9 9 9 10 10 16 17 10 11 11 11 11 13 15 14 15 16 13 15 16 13 12 10 14 12 14 13 12 30 33 32
3 2 3 5 5 6 14 17 15 5 6 8 8 7 8 10 20 28 16 14 14 12 16 24 23 25 29 27 22 12 10 11 14 13 11 11 11 13 14 15 14 26 26
2 3 5 4 8 6 14 17 14 5 5 7 6 6 13 18 27 26 17 13 12 14 13 11 12 15 18 17 24 12 10 11 12 13 9 7 12 9 7 7 7 11 11
Wind_Direction
127 111 93 75 66 56 58 53 48 46 41 32 33 41 21 20 50 39 42 41 38 33 27 26 34 30 16 7 5 9 8 1 354 351 350 351 345 337 328 317 311 307 308
132 113 86 69 68 69 63 67 60 49 41 32 27 32 27 43 58 40 49 39 43 34 37 33 27 17 10 4 5 357 352 348 345 345 340 331 328 321 311 309 307 305 303
117 103 91 72 60 68 66 59 49 46 37 14 18 17 27 45 65 45 51 43 51 39 36 30 24 13 6 358 352 345 343 341 342 336 330 324 321 316 310 311 301 292 290
115 116 100 80 78 67 66 60 29 35 28 17 341 342 11 11 95 44 54 54 56 36 32 29 21 7 358 350 345 338 338 333 331 326 323 319 316 309 303 302 298 299 292
111 102 96 89 79 67 56 52 45 48 25 357 331 323 352 324 110 39 56 44 43 31 30 21 10 360 353 343 337 332 330 325 321 319 318 312 308 310 303 298 295 293 289
107 99 90 86 81 73 47 47 58 34 53 334 322 318 337 30 127 48 51 26 36 25 11 1 353 351 342 337 329 326 324 319 313 312 308 305 305 304 299 295 291 289 287
105 97 97 89 77 73 67 44 80 45 17 351 4 336 331 349 282 292 292 9 3 353 357 354 347 333 325 325 322 320 321 312 310 307 305 304 303 298 294 289 288 287 286
101 99 102 91 82 87 65 53 48 37 22 25 20 293 354 333 350 320 355 352 359 12 359 340 326 312 310 308 304 316 314 308 307 305 303 302 298 295 288 291 291 290 288
97 99 97 94 89 90 81 68 59 56 24 359 37 70 350 307 324 322 321 334 338 357 323 309 304 294 294 295 299 301 306 304 303 302 303 300 297 294 294 291 288 283 279
95 96 95 96 90 84 76 75 68 73 89 40 347 35 129 210 314 318 308 311 354 320 293 288 292 286 288 288 293 299 304 303 300 302 303 298 297 294 291 289 287 281 284
90 93 95 88 80 77 77 75 65 62 66 106 90 343 323 287 257 248 303 311 308 308 300 287 282 289 284 285 284 287 299 302 300 301 297 295 296 293 291 288 286 288 282
86 82 85 85 85 81 76 74 72 67 65 70 145 221 219 260 290 283 290 308 301 301 308 289 282 277 288 289 294 306 306 304 302 299 298 298 294 292 290 289 289 287 286
88 90 89 83 79 83 78 71 65 39 14 333 275 267 218 232 228 247 286 304 304 308 283 265 262 277 289 297 297 305 302 302 302 302 299 297 296 294 291 290 290 289 288
114 112 96 88 84 81 75 62 49 337 291 297 284 266 262 243 239 229 262 308 314 289 301 264 271 245 274 281 286 296 297 294 297 298 297 294 292 294 296 293 287 290 290
115 102 95 91 76 69 59 36 2 321 313 290 279 280 242 262 249 249 249 254 282 308 308 307 300 303 295 288 286 295 289 286 290 292 293 293 297 293 293 289 291 290 289
101 98 91 83 71 53 33 9 329 307 312 307 291 287 269 251 250 251 247 250 248 268 288 306 301 297 294 293 291 293 288 288 289 290 293 289 287 290 288 289 289 287 286
101 98 97 87 62 34 4 338 323 302 326 310 299 282 279 269 258 255 248 254 259 256 273 293 293 302 298 292 293 290 285 282 286 283 284 290 292 291 289 287 288 287 283
99 102 91 76 45 5 340 347 329 320 308 306 298 301 290 299 277 263 265 265 259 261 268 284 295 301 296 297 296 304 292 277 274 280 289 289 290 296 295 293 289 288 287
100 84 76 57 16 353 346 333 310 306 306 296 298 299 290 287 283 276 267 268 271 273 271 277 290 293 293 303 299 293 292 293 284 286 290 290 290 293 291 290 287 287 286
95 82 67 46 14 345 333 318 311 303 305 316 309 299 295 289 283 279 271 274 297 296 286 284 285 292 308 301 302 304 301 291 290 290 287 285 289 289 288 290 289 288 287
94 85 60 29 7 345 332 314 301 305 311 309 303 299 287 289 305 310 308 313 301 295 294 291 318 302 311 311 306 302 295 297 293 290 287 290 283 279 281 283 282 283 284
83 64 32 17 359 335 321 325 327 304 297 304 299 289 277 294 294 308 311 306 303 307 319 311 305 306 302 301 297 298 298 306 304 294 290 290 283 282 279 275 277 281 281
71 46 24 2 328 311 322 327 323 312 300 289 286 287 293 299 309 293 291 295 303 307 308 308 303 297 295 296 300 305 301 296 294 298 296 289 291 284 281 278 282 283 282
50 31 347 327 325 324 329 325 323 318 292 276 276 277 283 290 289 300 309 309 308 303 299 298 294 294 292 303 300 300 298 294 291 293 288 286 293 285 289 283 283 284 284
31 350 314 336 334 304 326 332 327 296 277 276 280 273 280 298 308 316 321 314 313 308 301 303 302 308 307 307 307 306 303 303 301 301 300 288 291 292 291 284 276 277 280
359 343 335 325 312 316 328 325 324 304 287 298 294 281 305 317 317 321 322 321 320 307 304 313 315 308 305 299 306 305 300 296 299 302 300 300 300 305 304 266 275 281 274